Time,TemperatureF,DewpointF,PressureIn,WindDirection,WindDirectionDegrees,WindSpeedMPH,WindSpeedGustMPH,Humidity,HourlyPrecipIn,Conditions,Clouds,dailyrainin,SoftwareType,DateUTC
2013-05-19 00:02:00,68.0,67.0,-100.00,SE,125,0.0,0.0,94,-99.99,,,-99.99,,2013-05-19 05:02:00,
2013-05-19 00:12:00,68.0,66.0,-100.00,SE,135,0.0,0.0,94,-99.99,,,-99.99,,2013-05-19 05:12:00,
2013-05-19 00:22:00,68.0,66.0,-100.00,SE,135,0.0,0.0,95,-99.99,,,-99.99,,2013-05-19 05:22:00,
2013-05-19 00:32:00,68.0,66.0,-100.00,SE,135,0.0,0.0,95,-99.99,,,-99.99,,2013-05-19 05:32:00,
2013-05-19 00:42:00,68.0,67.0,-100.00,SE,140,0.0,0.0,96,-99.99,,,-99.99,,2013-05-19 05:42:00,
2013-05-19 00:52:00,68.0,66.0,-100.00,SSE,165,0.0,0.0,95,-99.99,,,-99.99,,2013-05-19 05:52:00,
2013-05-19 01:02:00,68.0,66.0,-100.00,SSE,165,0.0,0.0,95,-99.99,,,-99.99,,2013-05-19 06:02:00,
2013-05-19 01:12:00,68.0,66.0,-100.00,South,180,0.0,0.0,94,-99.99,,,-99.99,,2013-05-19 06:12:00,
2013-05-19 01:21:00,68.0,66.0,-100.00,South,180,0.0,0.0,94,-99.99,,,-99.99,,2013-05-19 06:21:00,
2013-05-19 01:32:00,68.0,66.0,-100.00,South,180,0.0,0.0,94,-99.99,,,-99.99,,2013-05-19 06:32:00,
2013-05-19 01:42:00,68.0,66.0,-100.00,SE,140,0.0,0.0,95,-99.99,,,-99.99,,2013-05-19 06:42:00,
2013-05-19 01:52:00,67.0,66.0,-100.00,SSE,155,0.0,0.0,96,-99.99,,,-99.99,,2013-05-19 06:52:00,
2013-05-19 02:01:00,67.0,66.0,-100.00,SSE,155,0.0,0.0,96,-99.99,,,-99.99,,2013-05-19 07:01:00,
2013-05-19 02:11:00,67.0,66.0,-100.00,SSE,150,0.0,0.0,97,-99.99,,,-99.99,,2013-05-19 07:11:00,
2013-05-19 02:21:00,68.0,67.0,-100.00,SSE,160,0.0,0.0,97,-99.99,,,-99.99,,2013-05-19 07:21:00,
2013-05-19 02:32:00,68.0,67.0,-100.00,SSE,160,0.0,0.0,97,-99.99,,,-99.99,,2013-05-19 07:32:00,
2013-05-19 02:42:00,68.0,67.0,-100.00,SSE,165,0.0,0.0,97,-99.99,,,-99.99,,2013-05-19 07:42:00,
2013-05-19 02:52:00,68.0,67.0,-100.00,ESE,115,0.0,0.0,97,-99.99,,,-99.99,,2013-05-19 07:52:00,
2013-05-19 03:01:00,68.0,67.0,-100.00,ESE,115,0.0,0.0,97,-99.99,,,-99.99,,2013-05-19 08:01:00,
2013-05-19 03:12:00,68.0,67.0,-100.00,SSE,150,0.0,0.0,98,-99.99,,,-99.99,,2013-05-19 08:12:00,
2013-05-19 03:22:00,67.0,67.0,-100.00,SSE,150,0.0,0.0,99,-99.99,,,-99.99,,2013-05-19 08:22:00,
2013-05-19 03:32:00,67.0,67.0,-100.00,SSE,150,0.0,0.0,99,-99.99,,,-99.99,,2013-05-19 08:32:00,
2013-05-19 03:42:00,67.0,66.0,-100.00,ESE,120,0.0,0.0,99,-99.99,,,-99.99,,2013-05-19 08:42:00,
2013-05-19 03:52:00,67.0,66.0,-100.00,South,170,0.0,0.0,99,-99.99,,,-99.99,,2013-05-19 08:52:00,
2013-05-19 04:02:00,67.0,66.0,-100.00,South,170,0.0,0.0,99,-99.99,,,-99.99,,2013-05-19 09:02:00,
2013-05-19 04:12:00,67.0,67.0,-100.00,SSE,165,0.0,0.0,99,-99.99,,,-99.99,,2013-05-19 09:12:00,
2013-05-19 04:21:00,67.0,67.0,-100.00,South,175,0.0,0.0,99,-99.99,,,-99.99,,2013-05-19 09:21:00,
2013-05-19 04:32:00,67.0,67.0,-100.00,South,175,0.0,0.0,99,-99.99,,,-99.99,,2013-05-19 09:32:00,
2013-05-19 04:43:00,68.0,68.0,-100.00,South,170,0.0,0.0,99,-99.99,,,-99.99,,2013-05-19 09:43:00,
2013-05-19 04:53:00,68.0,68.0,-100.00,ESE,120,0.0,0.0,99,-99.99,,,-99.99,,2013-05-19 09:53:00,
2013-05-19 05:02:00,68.0,68.0,-100.00,ESE,120,0.0,0.0,99,-99.99,,,-99.99,,2013-05-19 10:02:00,
2013-05-19 05:12:00,68.0,67.0,-100.00,ESE,120,0.0,0.0,99,-99.99,,,-99.99,,2013-05-19 10:12:00,
2013-05-19 05:23:00,67.0,67.0,-100.00,SE,145,0.0,0.0,99,-99.99,,,-99.99,,2013-05-19 10:23:00,
2013-05-19 05:33:00,67.0,67.0,-100.00,SE,145,0.0,0.0,99,-99.99,,,-99.99,,2013-05-19 10:33:00,
2013-05-19 05:42:00,67.0,67.0,-100.00,SSE,150,0.0,0.0,99,-99.99,,,-99.99,,2013-05-19 10:42:00,
2013-05-19 05:53:00,67.0,67.0,-100.00,South,170,0.0,0.0,99,-99.99,,,-99.99,,2013-05-19 10:53:00,
2013-05-19 06:02:00,67.0,67.0,-100.00,South,170,0.0,0.0,99,-99.99,,,-99.99,,2013-05-19 11:02:00,
2013-05-19 06:12:00,67.0,67.0,-100.00,South,170,0.0,0.0,99,-99.99,,,-99.99,,2013-05-19 11:12:00,
2013-05-19 06:21:00,67.0,67.0,-100.00,SSW,195,0.0,0.0,99,-99.99,,,-99.99,,2013-05-19 11:21:00,
2013-05-19 06:32:00,67.0,67.0,-100.00,SSW,195,0.0,0.0,99,-99.99,,,-99.99,,2013-05-19 11:32:00,
2013-05-19 06:42:00,68.0,67.0,-100.00,SE,130,0.0,0.0,99,-99.99,,,-99.99,,2013-05-19 11:42:00,
2013-05-19 06:52:00,68.0,68.0,-100.00,South,180,0.0,0.0,99,-99.99,,,-99.99,,2013-05-19 11:52:00,
2013-05-19 07:01:00,68.0,68.0,-100.00,South,180,0.0,0.0,99,-99.99,,,-99.99,,2013-05-19 12:01:00,
2013-05-19 07:11:00,68.0,68.0,-100.00,ESE,120,0.0,0.0,99,-99.99,,,-99.99,,2013-05-19 12:11:00,
2013-05-19 07:22:00,68.0,68.0,-100.00,SSE,165,0.0,0.0,99,-99.99,,,-99.99,,2013-05-19 12:22:00,
2013-05-19 07:32:00,68.0,68.0,-100.00,SSE,165,0.0,0.0,99,-99.99,,,-99.99,,2013-05-19 12:32:00,
2013-05-19 07:42:00,68.0,62.0,-100.00,ESE,105,0.0,0.0,79,-99.99,,,-99.99,,2013-05-19 12:42:00,
2013-05-19 07:52:00,69.0,69.0,-100.00,SE,140,0.0,0.0,99,-99.99,,,-99.99,,2013-05-19 12:52:00,
2013-05-19 08:01:00,69.0,69.0,-100.00,SE,140,0.0,0.0,99,-99.99,,,-99.99,,2013-05-19 13:01:00,
2013-05-19 08:11:00,69.0,69.0,-100.00,SE,135,0.0,0.0,99,-99.99,,,-99.99,,2013-05-19 13:11:00,
2013-05-19 08:21:00,70.0,69.0,-100.00,ESE,115,0.0,0.0,98,-99.99,,,-99.99,,2013-05-19 13:21:00,
2013-05-19 08:32:00,70.0,69.0,-100.00,ESE,115,0.0,0.0,98,-99.99,,,-99.99,,2013-05-19 13:32:00,
2013-05-19 08:42:00,70.0,69.0,-100.00,ESE,120,0.0,0.0,97,-99.99,,,-99.99,,2013-05-19 13:42:00,
2013-05-19 08:52:00,71.0,70.0,-100.00,SE,130,0.0,0.0,95,-99.99,,,-99.99,,2013-05-19 13:52:00,
2013-05-19 09:00:00,72.0,70.0,-100.00,South,170,0.0,0.0,92,-99.99,,,-99.99,,2013-05-19 14:00:00,
2013-05-19 09:02:00,71.0,70.0,-100.00,SE,130,0.0,0.0,95,-99.99,,,-99.99,,2013-05-19 14:02:00,
2013-05-19 09:11:00,72.0,70.0,-100.00,SSE,160,0.0,0.0,94,-99.99,,,-99.99,,2013-05-19 14:11:00,
2013-05-19 09:21:00,72.0,70.0,-100.00,SE,125,0.0,0.0,92,-99.99,,,-99.99,,2013-05-19 14:21:00,
2013-05-19 09:32:00,72.0,70.0,-100.00,SE,125,0.0,0.0,92,-99.99,,,-99.99,,2013-05-19 14:32:00,
2013-05-19 09:42:00,72.0,70.0,-100.00,South,170,0.0,0.0,92,-99.99,,,-99.99,,2013-05-19 14:42:00,
2013-05-19 09:52:00,72.0,70.0,-100.00,South,170,0.0,0.0,92,-99.99,,,-99.99,,2013-05-19 14:52:00,
2013-05-19 10:11:00,74.0,70.0,-100.00,SSE,150,0.0,0.0,89,-99.99,,,-99.99,,2013-05-19 15:11:00,
2013-05-19 10:22:00,74.0,71.0,-100.00,South,180,0.0,0.0,89,-99.99,,,-99.99,,2013-05-19 15:22:00,
2013-05-19 10:33:00,74.0,71.0,-100.00,South,180,0.0,0.0,89,-99.99,,,-99.99,,2013-05-19 15:33:00,
2013-05-19 10:43:00,74.0,71.0,-100.00,South,180,0.0,0.0,89,-99.99,,,-99.99,,2013-05-19 15:43:00,
2013-05-19 10:53:00,75.0,72.0,-100.00,South,180,0.0,0.0,89,-99.99,,,-99.99,,2013-05-19 15:53:00,
2013-05-19 11:03:00,75.0,72.0,-100.00,South,180,0.0,0.0,89,-99.99,,,-99.99,,2013-05-19 16:03:00,
2013-05-19 11:12:00,76.0,73.0,-100.00,South,185,0.0,0.0,88,-99.99,,,-99.99,,2013-05-19 16:12:00,
2013-05-19 11:23:00,78.0,73.0,-100.00,SSE,165,0.0,0.0,83,-99.99,,,-99.99,,2013-05-19 16:23:00,
2013-05-19 11:32:00,78.0,73.0,-100.00,SSE,165,0.0,0.0,83,-99.99,,,-99.99,,2013-05-19 16:32:00,
2013-05-19 11:42:00,77.0,73.0,-100.00,South,190,0.0,0.0,86,-99.99,,,-99.99,,2013-05-19 16:42:00,
2013-05-19 11:52:00,78.0,73.0,-100.00,SW,230,0.0,0.0,86,-99.99,,,-99.99,,2013-05-19 16:52:00,
2013-05-19 12:02:00,78.0,73.0,-100.00,SW,230,0.0,0.0,86,-99.99,,,-99.99,,2013-05-19 17:02:00,
2013-05-19 12:12:00,77.0,73.0,-100.00,South,190,0.0,0.0,88,-99.99,,,-99.99,,2013-05-19 17:12:00,
2013-05-19 12:22:00,77.0,73.0,-100.00,SSW,205,0.0,0.0,90,-99.99,,,-99.99,,2013-05-19 17:22:00,
2013-05-19 12:32:00,77.0,73.0,-100.00,SSW,205,0.0,0.0,90,-99.99,,,-99.99,,2013-05-19 17:32:00,
2013-05-19 12:42:00,76.0,73.0,-100.00,South,175,0.0,0.0,90,-99.99,,,-99.99,,2013-05-19 17:42:00,
2013-05-19 12:52:00,76.0,74.0,-100.00,ESE,110,0.0,0.0,92,-99.99,,,-99.99,,2013-05-19 17:52:00,
2013-05-19 13:02:00,76.0,74.0,-100.00,ESE,110,0.0,0.0,92,-99.99,,,-99.99,,2013-05-19 18:02:00,
2013-05-19 13:12:00,76.0,74.0,-100.00,ESE,115,0.0,0.0,94,-99.99,,,-99.99,,2013-05-19 18:12:00,
2013-05-19 13:22:00,75.0,74.0,-100.00,ESE,120,0.0,0.0,95,-99.99,,,-99.99,,2013-05-19 18:22:00,
2013-05-19 13:32:00,75.0,74.0,-100.00,ESE,120,0.0,0.0,95,-99.99,,,-99.99,,2013-05-19 18:32:00,
2013-05-19 13:42:00,74.0,69.0,-100.00,SE,140,0.0,0.0,86,-99.99,,,-99.99,,2013-05-19 18:42:00,
2013-05-19 13:53:00,74.0,66.0,-100.00,SSE,150,0.0,0.0,75,-99.99,,,-99.99,,2013-05-19 18:53:00,
2013-05-19 14:01:00,74.0,66.0,-100.00,SSE,150,0.0,0.0,75,-99.99,,,-99.99,,2013-05-19 19:01:00,
2013-05-19 14:11:00,76.0,68.0,-100.00,South,175,0.0,0.0,78,-99.99,,,-99.99,,2013-05-19 19:11:00,
2013-05-19 14:22:00,79.0,71.0,-100.00,South,175,0.0,0.0,77,-99.99,,,-99.99,,2013-05-19 19:22:00,
2013-05-19 14:32:00,79.0,71.0,-100.00,South,175,0.0,0.0,77,-99.99,,,-99.99,,2013-05-19 19:32:00,
2013-05-19 14:42:00,79.0,71.0,-100.00,South,175,0.0,0.0,77,-99.99,,,-99.99,,2013-05-19 19:42:00,
2013-05-19 14:52:00,83.0,74.0,-100.00,SSE,165,0.0,0.0,76,-99.99,,,-99.99,,2013-05-19 19:52:00,
2013-05-19 15:02:00,83.0,74.0,-100.00,SSE,165,0.0,0.0,76,-99.99,,,-99.99,,2013-05-19 20:02:00,
2013-05-19 15:11:00,83.0,75.0,-100.00,South,175,0.0,0.0,75,-99.99,,,-99.99,,2013-05-19 20:11:00,
2013-05-19 15:21:00,84.0,75.0,-100.00,SSE,150,0.0,0.0,75,-99.99,,,-99.99,,2013-05-19 20:21:00,
2013-05-19 15:32:00,84.0,75.0,-100.00,SSE,150,0.0,0.0,75,-99.99,,,-99.99,,2013-05-19 20:32:00,
2013-05-19 15:42:00,85.0,76.0,-100.00,South,170,0.0,0.0,73,-99.99,,,-99.99,,2013-05-19 20:42:00,
2013-05-19 15:52:00,86.0,74.0,-100.00,SSE,165,0.0,0.0,69,-99.99,,,-99.99,,2013-05-19 20:52:00,
2013-05-19 16:02:00,86.0,74.0,-100.00,SSE,165,0.0,0.0,69,-99.99,,,-99.99,,2013-05-19 21:02:00,
2013-05-19 16:11:00,86.0,74.0,-100.00,SSE,165,0.0,0.0,69,-99.99,,,-99.99,,2013-05-19 21:11:00,
2013-05-19 16:22:00,87.0,73.0,-100.00,SSE,165,0.0,0.0,64,-99.99,,,-99.99,,2013-05-19 21:22:00,
2013-05-19 16:32:00,87.0,73.0,-100.00,SSE,165,0.0,0.0,64,-99.99,,,-99.99,,2013-05-19 21:32:00,
2013-05-19 16:43:00,87.0,73.0,-100.00,SE,140,0.0,0.0,64,-99.99,,,-99.99,,2013-05-19 21:43:00,
2013-05-19 16:53:00,87.0,73.0,-100.00,South,170,0.0,0.0,63,-99.99,,,-99.99,,2013-05-19 21:53:00,
2013-05-19 17:03:00,87.0,73.0,-100.00,South,170,0.0,0.0,63,-99.99,,,-99.99,,2013-05-19 22:03:00,
2013-05-19 17:12:00,86.0,72.0,-100.00,South,170,0.0,0.0,64,-99.99,,,-99.99,,2013-05-19 22:12:00,
2013-05-19 17:23:00,86.0,73.0,-100.00,SSE,165,0.0,0.0,66,-99.99,,,-99.99,,2013-05-19 22:23:00,
2013-05-19 17:33:00,86.0,73.0,-100.00,SSE,165,0.0,0.0,66,-99.99,,,-99.99,,2013-05-19 22:33:00,
2013-05-19 17:42:00,86.0,73.0,-100.00,SSE,165,0.0,0.0,67,-99.99,,,-99.99,,2013-05-19 22:42:00,
2013-05-19 17:53:00,85.0,73.0,-100.00,South,190,0.0,0.0,67,-99.99,,,-99.99,,2013-05-19 22:53:00,
2013-05-19 18:02:00,85.0,73.0,-100.00,South,190,0.0,0.0,67,-99.99,,,-99.99,,2013-05-19 23:02:00,
2013-05-19 18:12:00,84.0,73.0,-100.00,SSE,165,0.0,0.0,69,-99.99,,,-99.99,,2013-05-19 23:12:00,
2013-05-19 18:22:00,84.0,73.0,-100.00,SE,135,0.0,0.0,70,-99.99,,,-99.99,,2013-05-19 23:22:00,
2013-05-19 18:32:00,84.0,73.0,-100.00,SE,135,0.0,0.0,70,-99.99,,,-99.99,,2013-05-19 23:32:00,
2013-05-19 18:42:00,83.0,74.0,-100.00,SE,130,0.0,0.0,73,-99.99,,,-99.99,,2013-05-19 23:42:00,
2013-05-19 18:52:00,83.0,74.0,-100.00,SE,125,0.0,0.0,74,-99.99,,,-99.99,,2013-05-19 23:52:00,
2013-05-19 19:02:00,83.0,74.0,-100.00,SE,125,0.0,0.0,74,-99.99,,,-99.99,,2013-05-20 00:02:00,
2013-05-19 19:11:00,83.0,74.0,-100.00,East,95,0.0,0.0,74,-99.99,,,-99.99,,2013-05-20 00:11:00,
2013-05-19 19:22:00,83.0,74.0,-100.00,East,95,0.0,0.0,74,-99.99,,,-99.99,,2013-05-20 00:22:00,
2013-05-19 19:32:00,83.0,74.0,-100.00,East,95,0.0,0.0,74,-99.99,,,-99.99,,2013-05-20 00:32:00,
2013-05-19 19:42:00,83.0,73.0,-100.00,ESE,120,0.0,0.0,73,-99.99,,,-99.99,,2013-05-20 00:42:00,
2013-05-19 19:52:00,83.0,73.0,-100.00,East,95,0.0,0.0,73,-99.99,,,-99.99,,2013-05-20 00:52:00,
2013-05-19 20:01:00,83.0,73.0,-100.00,East,95,0.0,0.0,73,-99.99,,,-99.99,,2013-05-20 01:01:00,
2013-05-19 20:11:00,83.0,74.0,-100.00,East,90,0.0,0.0,75,-99.99,,,-99.99,,2013-05-20 01:11:00,
2013-05-19 20:21:00,82.0,74.0,-100.00,SE,140,0.0,0.0,76,-99.99,,,-99.99,,2013-05-20 01:21:00,
2013-05-19 20:31:00,82.0,74.0,-100.00,SE,140,0.0,0.0,76,-99.99,,,-99.99,,2013-05-20 01:31:00,
2013-05-19 20:42:00,82.0,73.0,-100.00,SE,135,0.0,0.0,75,-99.99,,,-99.99,,2013-05-20 01:42:00,
2013-05-19 20:52:00,82.0,73.0,-100.00,SE,130,0.0,0.0,76,-99.99,,,-99.99,,2013-05-20 01:52:00,
2013-05-19 21:02:00,82.0,73.0,-100.00,SE,130,0.0,0.0,76,-99.99,,,-99.99,,2013-05-20 02:02:00,
2013-05-19 21:11:00,81.0,73.0,-100.00,ESE,120,0.0,0.0,77,-99.99,,,-99.99,,2013-05-20 02:11:00,
2013-05-19 21:21:00,81.0,73.0,-100.00,SE,140,0.0,0.0,78,-99.99,,,-99.99,,2013-05-20 02:21:00,
2013-05-19 21:31:00,81.0,73.0,-100.00,SE,140,0.0,0.0,78,-99.99,,,-99.99,,2013-05-20 02:31:00,
2013-05-19 21:42:00,81.0,73.0,-100.00,SE,135,0.0,0.0,78,-99.99,,,-99.99,,2013-05-20 02:42:00,
2013-05-19 21:52:00,81.0,73.0,-100.00,SSE,155,0.0,0.0,78,-99.99,,,-99.99,,2013-05-20 02:52:00,
2013-05-19 22:01:00,81.0,73.0,-100.00,SSE,155,0.0,0.0,78,-99.99,,,-99.99,,2013-05-20 03:01:00,
2013-05-19 22:11:00,81.0,73.0,-100.00,SSE,150,0.0,0.0,78,-99.99,,,-99.99,,2013-05-20 03:11:00,
2013-05-19 22:21:00,80.0,73.0,-100.00,South,180,0.0,0.0,78,-99.99,,,-99.99,,2013-05-20 03:21:00,
2013-05-19 22:33:00,80.0,73.0,-100.00,South,180,0.0,0.0,78,-99.99,,,-99.99,,2013-05-20 03:33:00,
2013-05-19 22:43:00,80.0,73.0,-100.00,SSE,165,0.0,0.0,79,-99.99,,,-99.99,,2013-05-20 03:43:00,
2013-05-19 22:52:00,80.0,73.0,-100.00,South,185,0.0,0.0,78,-99.99,,,-99.99,,2013-05-20 03:52:00,
2013-05-19 23:03:00,80.0,73.0,-100.00,South,185,0.0,0.0,78,-99.99,,,-99.99,,2013-05-20 04:03:00,
2013-05-19 23:13:00,80.0,70.0,-100.00,SSW,195,0.0,0.0,70,-99.99,,,-99.99,,2013-05-20 04:13:00,
2013-05-19 23:23:00,81.0,67.0,-100.00,SSW,205,0.0,0.0,63,-99.99,,,-99.99,,2013-05-20 04:23:00,
2013-05-19 23:33:00,81.0,67.0,-100.00,SSW,205,0.0,0.0,63,-99.99,,,-99.99,,2013-05-20 04:33:00,
2013-05-19 23:42:00,80.0,67.0,-100.00,South,185,0.0,0.0,63,-99.99,,,-99.99,,2013-05-20 04:42:00,
2013-05-19 23:53:00,80.0,66.0,-100.00,South,190,0.0,0.0,63,-99.99,,,-99.99,,2013-05-20 04:53:00,